[[{"header":{"parameterUnit":"m.s-1","parameterCategory":1,"la1":30.2991,"la2":30.254,"lo1":-89.0895,"lo2":-89.0444,"dy":0.0017,"dx":0.0017,"nx":28,"ny":28,"refTime":"2025-08-22T03:00:00:Z","depth":0,"parameterNumber":2,"parameterNumberName":"U-component_of_WINDS"},"data":[0,0,0,0,0,0,0,0,0,0,0,0,0,0,0,0,0,0,0,0,0,0,0,0,0,0,0,0,0,0,0,0,0,0,0,0,0,0,0,0,0,0,0,0,0,0,0,0,0,0,0,0,0,0,0,0,0,0,-0.2955,-0.2955,0,-0.2925,-0.2925,-0.2924,-0.2925,-0.2925,-0.2926,-0.2926,-0.2894,-0.2893,-0.2892,0,0,0,0,0,0,0,0,0,0,0,0,0,-0.3012,-0.3011,-0.2955,-0.2955,-0.2955,-0.2925,-0.2925,-0.2924,-0.2925,-0.2925,-0.2926,-0.2926,-0.2895,-0.2893,-0.2892,0,0,0,0,0,0,0,0,0,0,0,0,0,-0.2985,-0.3011,-0.2955,-0.2951,-0.2951,-0.2925,-0.2925,-0.2924,-0.2925,-0.2925,-0.2926,-0.2927,-0.2895,-0.2893,-0.2891,-0.2868,0,0,-0.2886,-0.2885,0,0,0,0,0,0,0,0,-0.2987,-0.2983,-0.2952,-0.2952,-0.2951,-0.2929,-0.2933,-0.2905,-0.2925,-0.2935,-0.2926,-0.2927,-0.2905,-0.2903,-0.2896,-0.2866,-0.2865,-0.2886,-0.2885,-0.2884,-0.2883,0,0,0,0,0,0,0,-0.2989,-0.2985,-0.2943,-0.2952,-0.2951,-0.2951,-0.2947,-0.2928,-0.2917,-0.2934,-0.2934,-0.293,-0.2905,-0.2897,-0.2895,-0.2864,-0.2886,-0.2884,-0.2883,-0.2882,-0.2811,-0.281,0,0,0,0,0,0,-0.2992,-0.2986,-0.2944,-0.2942,-0.2971,-0.2949,-0.2946,-0.2936,-0.2917,-0.2915,-0.293,-0.293,-0.29,-0.2897,-0.2894,-0.2863,-0.2884,-0.2882,-0.2881,-0.2812,-0.2811,-0.281,0,0,0,0,0,0,-0.2993,-0.2988,-0.2945,-0.2964,-0.2959,-0.2947,-0.2936,-0.2935,-0.2927,-0.2914,-0.2912,-0.2924,-0.2901,-0.2896,-0.2874,-0.2862,-0.2881,-0.2879,-0.2813,-0.2812,-0.2811,-0.2802,0,0,0,0,0,0,-0.2995,-0.2988,-0.298,-0.2964,-0.2958,-0.2926,-0.2936,-0.2934,-0.2924,-0.2924,-0.2908,-0.2906,-0.2901,-0.2876,-0.2872,-0.286,-0.2878,-0.2814,-0.2812,-0.2811,-0.2803,-0.2801,-0.2799,0,0,0,0,0,-0.2997,-0.2979,-0.2979,-0.2974,-0.2947,-0.2926,-0.2922,-0.2917,-0.2923,-0.2914,-0.2905,-0.2906,-0.2864,-0.2874,-0.2869,-0.2856,-0.2815,-0.2813,-0.2811,-0.2804,-0.2801,-0.2799,0,0,0,0,0,0,-0.2994,-0.2977,-0.2977,-0.2954,-0.2941,-0.2926,-0.2914,-0.2914,-0.2899,-0.29,-0.2894,-0.289,-0.2867,-0.286,-0.2871,-0.2831,-0.284,-0.2837,-0.2837,-0.2834,-0.2831,-0.2833,-0.2876,0,0,0,0,0,-0.299,-0.2975,-0.2961,-0.2942,-0.2935,-0.2926,-0.2917,-0.2913,-0.29,-0.2895,-0.2884,-0.2871,-0.2854,-0.2844,-0.2828,-0.2802,-0.2798,-0.2791,-0.2789,-0.2787,-0.2784,-0.2768,-0.2764,-0.2804,-0.2805,-0.2805,0,0,-0.2983,-0.2972,-0.2963,-0.2941,-0.2931,-0.2914,-0.2921,-0.2904,-0.2891,-0.2892,-0.2869,-0.2861,-0.2846,-0.2821,-0.281,-0.2814,-0.2772,-0.2784,-0.2783,-0.2781,-0.2766,-0.2762,-0.2758,-0.2803,-0.2804,-0.2804,0,0,-0.2962,-0.2952,-0.2934,-0.2924,-0.2908,-0.2902,-0.2897,-0.2882,-0.2876,-0.2854,-0.2853,-0.2838,-0.281,-0.2798,-0.2789,-0.2761,-0.2761,-0.2756,-0.2743,-0.2728,-0.2725,-0.2722,-0.271,-0.2706,-0.2754,-0.2754,-0.2754,0,-0.2955,-0.293,-0.2925,-0.2907,-0.2897,-0.2896,-0.2877,-0.2867,-0.2847,-0.284,-0.2845,-0.2809,-0.2798,-0.277,-0.2763,-0.2756,-0.275,-0.2758,-0.2726,-0.2723,-0.272,-0.2709,-0.2705,-0.2753,-0.2753,-0.2753,-0.2753,0,-0.2922,-0.2905,-0.2892,-0.2872,-0.286,-0.2842,-0.2833,-0.2822,-0.2819,-0.2812,-0.2788,-0.2776,-0.2756,-0.275,-0.2747,-0.272,-0.2723,-0.2727,-0.2736,-0.2715,-0.2705,-0.2701,-0.2752,-0.2752,-0.2752,-0.2753,0,0,-0.2898,-0.2874,-0.287,-0.286,-0.2842,-0.2828,-0.2809,-0.279,-0.278,-0.2766,-0.2749,-0.2725,-0.2727,-0.2717,-0.2713,-0.27,-0.2676,-0.2705,-0.2704,-0.2699,-0.2643,-0.264,-0.2635,-0.2676,-0.2676,-0.2675,-0.2644,0,-0.2873,-0.284,-0.2834,-0.2804,-0.2787,-0.2786,-0.2769,-0.2756,-0.2748,-0.2732,-0.2724,-0.2706,-0.2712,-0.2705,-0.2692,-0.2682,-0.2665,-0.2684,-0.2659,-0.2659,-0.2662,-0.263,-0.2626,-0.2598,-0.264,-0.264,-0.2639,0,-0.284,-0.2824,-0.2793,-0.2775,-0.2768,-0.2753,-0.2734,-0.272,-0.2704,-0.2699,-0.2686,-0.2684,-0.2663,-0.2673,-0.2644,-0.2657,-0.2646,-0.264,-0.2639,-0.2635,-0.2647,-0.2624,-0.2589,-0.2584,-0.2633,-0.2633,-0.2634,0,-0.2824,-0.2795,-0.2772,-0.2764,-0.2743,-0.2732,-0.2723,-0.2708,-0.2697,-0.268,-0.2672,-0.2654,-0.2643,-0.2629,-0.2621,-0.2629,-0.2591,-0.2601,-0.2585,-0.2585,-0.2577,-0.2577,-0.2538,-0.2572,-0.2572,-0.2572,-0.2572,0,-0.2797,-0.2777,-0.2764,-0.275,-0.2727,-0.272,-0.2698,-0.2689,-0.2675,-0.2658,-0.2656,-0.2641,-0.2632,-0.2614,-0.2608,-0.2583,-0.2579,-0.2574,-0.2572,-0.2573,-0.2574,-0.2565,-0.2567,-0.2571,-0.2571,-0.2571,-0.2572,0,-0.2775,-0.2765,-0.274,-0.2722,-0.2717,-0.2701,-0.2685,-0.2671,-0.2663,-0.2641,-0.2636,-0.2623,-0.2603,-0.2593,-0.2568,-0.2564,-0.2535,-0.2535,-0.254,-0.2539,-0.2523,-0.2524,-0.2476,-0.2469,-0.2509,-0.2509,-0.2509,0,-0.2757,-0.2742,-0.2722,-0.271,-0.2701,-0.2683,-0.267,-0.2662,-0.265,-0.263,-0.2617,-0.2596,-0.2579,-0.2546,-0.2534,-0.2514,-0.2513,-0.2497,-0.251,-0.2511,-0.2511,-0.2511,-0.2509,-0.2495,-0.2494,-0.2494,-0.2494,0,-0.2727,-0.2722,-0.2705,-0.2685,-0.2671,-0.2655,-0.264,-0.263,-0.262,-0.2605,-0.2584,-0.257,-0.2544,-0.2522,-0.2501,-0.2491,-0.249,-0.249,-0.2485,-0.2485,-0.2488,-0.2485,-0.2532,-0.2491,-0.2491,-0.2491,-0.2492,-0.2492,-0.2705,-0.2691,-0.2674,-0.2654,-0.2642,-0.2627,-0.2612,-0.2601,-0.2583,-0.2561,-0.2557,-0.2534,-0.2517,-0.2488,-0.2477,-0.2458,-0.2462,-0.2455,-0.2453,-0.2451,-0.245,-0.2492,-0.2455,-0.2455,-0.2455,-0.2455,-0.2455,0,-0.2674,-0.2662,-0.2644,-0.2622,-0.2606,-0.2606,-0.2589,-0.2575,-0.2555,-0.2539,-0.2522,-0.2496,-0.2475,-0.2461,-0.2439,-0.2427,-0.2425,-0.2421,-0.2421,-0.2419,-0.2448,-0.2454,-0.2422,-0.2422,-0.2422,-0.2422,-0.2422,-0.2422,-0.2655,-0.263,-0.2623,-0.2591,-0.258,-0.2557,-0.2547,-0.2533,-0.252,-0.2491,-0.2473,-0.2464,-0.2449,-0.2426,-0.2406,-0.2402,-0.2394,-0.2389,-0.2385,-0.2413,-0.2417,-0.242,-0.2425,-0.2388,-0.2388,-0.2357,-0.2357,-0.2356]},{"header":{"parameterUnit":"m.s-1","parameterCategory":1,"la1":30.2991,"la2":30.254,"lo1":-89.0895,"lo2":-89.0444,"dy":0.0017,"dx":0.0017,"nx":28,"ny":28,"refTime":"2025-08-22T03:00:00:Z","depth":0,"parameterNumber":3,"parameterNumberName":"V-component_of_WINDS"},"data":[0,0,0,0,0,0,0,0,0,0,0,0,0,0,0,0,0,0,0,0,0,0,0,0,0,0,0,0,0,0,0,0,0,0,0,0,0,0,0,0,0,0,0,0,0,0,0,0,0,0,0,0,0,0,0,0,0,0,-0.3348,-0.3349,0,-0.3386,-0.3386,-0.3387,-0.3431,-0.3432,-0.3432,-0.3433,-0.347,-0.347,-0.347,0,0,0,0,0,0,0,0,0,0,0,0,0,-0.3312,-0.3313,-0.3348,-0.3349,-0.3349,-0.3386,-0.3386,-0.3387,-0.3431,-0.3432,-0.3432,-0.3433,-0.347,-0.347,-0.3471,0,0,0,0,0,0,0,0,0,0,0,0,0,-0.3337,-0.3313,-0.3348,-0.3375,-0.3378,-0.3386,-0.3386,-0.3387,-0.3431,-0.3432,-0.3433,-0.3434,-0.347,-0.347,-0.3471,-0.3453,0,0,-0.3472,-0.3472,0,0,0,0,0,0,0,0,-0.3335,-0.3338,-0.3371,-0.3374,-0.3377,-0.3405,-0.3387,-0.3409,-0.343,-0.3411,-0.3433,-0.3434,-0.3447,-0.345,-0.3454,-0.3455,-0.3457,-0.3472,-0.3473,-0.3473,-0.3473,0,0,0,0,0,0,0,-0.3333,-0.3336,-0.3363,-0.3371,-0.3375,-0.3385,-0.339,-0.3392,-0.3423,-0.3412,-0.3416,-0.342,-0.3449,-0.3454,-0.3456,-0.3457,-0.3472,-0.3473,-0.3473,-0.3473,-0.3445,-0.3444,0,0,0,0,0,0,-0.3328,-0.3335,-0.3362,-0.3364,-0.3358,-0.3385,-0.339,-0.3395,-0.3423,-0.3428,-0.3419,-0.3422,-0.3452,-0.3455,-0.3457,-0.3438,-0.3473,-0.3473,-0.3474,-0.3446,-0.3444,-0.3443,0,0,0,0,0,0,-0.3327,-0.333,-0.336,-0.335,-0.3355,-0.3385,-0.3389,-0.3395,-0.34,-0.3428,-0.3433,-0.3418,-0.3453,-0.3456,-0.3454,-0.344,-0.3474,-0.3474,-0.3447,-0.3445,-0.3444,-0.34,0,0,0,0,0,0,-0.3326,-0.3329,-0.3324,-0.335,-0.3355,-0.3357,-0.3388,-0.3395,-0.3401,-0.3405,-0.3428,-0.3433,-0.3454,-0.3453,-0.3454,-0.3441,-0.3474,-0.3448,-0.3446,-0.3444,-0.3403,-0.3397,-0.3392,0,0,0,0,0,-0.3324,-0.331,-0.3323,-0.3326,-0.3349,-0.3356,-0.3359,-0.3384,-0.3399,-0.3394,-0.3411,-0.3433,-0.3441,-0.3452,-0.3454,-0.3441,-0.3449,-0.3447,-0.3444,-0.3405,-0.3398,-0.3392,0,0,0,0,0,0,-0.3281,-0.3314,-0.3329,-0.3323,-0.3336,-0.3364,-0.3357,-0.3376,-0.3385,-0.3388,-0.3419,-0.3423,-0.3417,-0.3429,-0.3441,-0.3425,-0.3448,-0.3446,-0.3418,-0.3411,-0.3406,-0.3403,-0.3475,0,0,0,0,0,-0.327,-0.3274,-0.3302,-0.3294,-0.33,-0.3327,-0.3331,-0.3349,-0.3364,-0.337,-0.3388,-0.3401,-0.3407,-0.341,-0.3417,-0.3405,-0.341,-0.3397,-0.3391,-0.3387,-0.3384,-0.3378,-0.3372,-0.3435,-0.3435,-0.3435,0,0,-0.3249,-0.3268,-0.3268,-0.3286,-0.3298,-0.33,-0.3332,-0.3333,-0.3335,-0.337,-0.3369,-0.3382,-0.3399,-0.3391,-0.3389,-0.3401,-0.3368,-0.3384,-0.338,-0.338,-0.3375,-0.3369,-0.3363,-0.3434,-0.3434,-0.3434,0,0,-0.3211,-0.3226,-0.322,-0.3232,-0.3251,-0.3269,-0.3267,-0.3292,-0.3302,-0.3301,-0.3327,-0.3329,-0.3339,-0.3349,-0.3356,-0.3321,-0.334,-0.3322,-0.3294,-0.3287,-0.3282,-0.3278,-0.3264,-0.3259,-0.332,-0.332,-0.332,0,-0.3182,-0.3187,-0.3214,-0.3214,-0.322,-0.3253,-0.3246,-0.3257,-0.3276,-0.328,-0.3293,-0.3305,-0.3319,-0.3314,-0.3305,-0.331,-0.3308,-0.3319,-0.3281,-0.3277,-0.3273,-0.326,-0.3255,-0.3317,-0.3318,-0.3318,-0.3318,0,-0.315,-0.3152,-0.3145,-0.3164,-0.317,-0.3166,-0.3192,-0.3194,-0.3212,-0.3228,-0.3226,-0.3243,-0.3254,-0.3254,-0.3271,-0.3251,-0.3258,-0.3276,-0.3299,-0.3264,-0.3253,-0.3248,-0.3314,-0.3315,-0.3316,-0.3316,0,0,-0.3085,-0.3119,-0.3115,-0.3124,-0.3146,-0.3149,-0.3146,-0.3157,-0.3157,-0.317,-0.3168,-0.3175,-0.3191,-0.3198,-0.3217,-0.3211,-0.318,-0.323,-0.323,-0.3219,-0.3158,-0.3143,-0.3137,-0.3194,-0.3193,-0.3192,-0.3156,0,-0.3051,-0.3049,-0.3073,-0.3064,-0.3066,-0.3097,-0.3094,-0.3107,-0.3122,-0.3126,-0.3142,-0.3146,-0.3168,-0.3173,-0.3168,-0.3185,-0.3168,-0.3188,-0.3191,-0.319,-0.3185,-0.3131,-0.3116,-0.3081,-0.3152,-0.3151,-0.315,0,-0.301,-0.302,-0.3011,-0.3033,-0.3035,-0.3033,-0.3044,-0.3047,-0.3062,-0.3073,-0.3081,-0.3102,-0.31,-0.3122,-0.3119,-0.3132,-0.3135,-0.3143,-0.3142,-0.3143,-0.3168,-0.3129,-0.3071,-0.3065,-0.3144,-0.3144,-0.3145,0,-0.2963,-0.2974,-0.297,-0.2976,-0.3002,-0.2999,-0.301,-0.3026,-0.3031,-0.304,-0.3043,-0.3052,-0.3056,-0.3062,-0.3084,-0.3099,-0.3078,-0.3103,-0.3086,-0.3086,-0.308,-0.308,-0.302,-0.3083,-0.3083,-0.3083,-0.3083,0,-0.2921,-0.2914,-0.2949,-0.2946,-0.2939,-0.2966,-0.2958,-0.2972,-0.2986,-0.2985,-0.3012,-0.3011,-0.3041,-0.3043,-0.3061,-0.3055,-0.3057,-0.3065,-0.307,-0.3062,-0.3061,-0.3064,-0.3066,-0.3082,-0.3082,-0.3082,-0.3083,0,-0.2867,-0.289,-0.2887,-0.2912,-0.2918,-0.2911,-0.2932,-0.293,-0.2946,-0.2946,-0.2947,-0.2972,-0.2976,-0.2999,-0.3008,-0.302,-0.3007,-0.3017,-0.3002,-0.3005,-0.2986,-0.2987,-0.2925,-0.2918,-0.2986,-0.2986,-0.2985,0,-0.2839,-0.2834,-0.2858,-0.286,-0.2869,-0.2872,-0.2876,-0.2903,-0.2906,-0.2922,-0.2918,-0.2924,-0.293,-0.2934,-0.2953,-0.296,-0.297,-0.2947,-0.2971,-0.2963,-0.2968,-0.2967,-0.2966,-0.2942,-0.2941,-0.294,-0.294,0,-0.2785,-0.2797,-0.2802,-0.2811,-0.2816,-0.2824,-0.2834,-0.2834,-0.2863,-0.2866,-0.287,-0.2874,-0.2883,-0.2888,-0.2898,-0.2909,-0.2928,-0.2932,-0.2929,-0.292,-0.2911,-0.2915,-0.2987,-0.2933,-0.2934,-0.2935,-0.2935,-0.2935,-0.2742,-0.2739,-0.2755,-0.276,-0.277,-0.2779,-0.2778,-0.2794,-0.2798,-0.2807,-0.2823,-0.2824,-0.2838,-0.2854,-0.2862,-0.2863,-0.2875,-0.287,-0.2868,-0.2866,-0.2862,-0.2912,-0.2865,-0.2865,-0.2865,-0.2866,-0.2866,0,-0.269,-0.2701,-0.2705,-0.2718,-0.2722,-0.2741,-0.2753,-0.2754,-0.2755,-0.2767,-0.2772,-0.2776,-0.2781,-0.28,-0.2807,-0.2804,-0.2813,-0.2804,-0.2804,-0.2806,-0.2852,-0.2854,-0.2797,-0.2797,-0.2797,-0.2797,-0.2797,-0.2797,-0.2662,-0.2657,-0.267,-0.267,-0.2682,-0.2684,-0.2689,-0.2696,-0.2706,-0.2709,-0.2713,-0.2726,-0.274,-0.2748,-0.2752,-0.2758,-0.2758,-0.2747,-0.2755,-0.2797,-0.2803,-0.2809,-0.2811,-0.2747,-0.2747,-0.2709,-0.2709,-0.2709]}]]